QPF
0.00 0.00 0.00 0.00 0.00 0.00 0.00 0.00 0.00 0.00 0.00 0.00 0.00 0.00 0.00 0.00 0.00 0.00 0.00 0.00 0.00 0.00 0.00 0.00 0.00 0.00 0.00 0.00 0.00 0.00 0.00 0.00 0.00 0.00 0.00 0.00 0.00 0.00 0.00 0.00 0.00 0.00 0.00 0.01
0.00 0.00 0.00 0.00 0.00 0.00 0.00 0.00 0.00 0.00 0.00 0.00 0.00 0.00 0.00 0.00 0.00 0.00 0.00 0.00 0.00 0.00 0.00 0.00 0.00 0.00 0.00 0.00 0.00 0.00 0.00 0.00 0.00 0.00 0.00 0.00 0.00 0.00 0.00 0.00 0.00 0.00 0.00 0.00
0.00 0.00 0.00 0.00 0.00 0.00 0.00 0.00 0.00 0.00 0.00 0.00 0.00 0.00 0.00 0.00 0.00 0.00 0.00 0.00 0.00 0.00 0.00 0.00 0.00 0.00 0.00 0.00 0.00 0.00 0.00 0.00 0.00 0.00 0.00 0.00 0.00 0.00 0.00 0.00 0.00 0.00 0.00 0.00
0.00 0.00 0.00 0.00 0.00 0.00 0.00 0.00 0.00 0.00 0.00 0.00 0.00 0.00 0.00 0.00 0.00 0.00 0.00 0.00 0.00 0.00 0.00 0.00 0.00 0.00 0.00 0.00 0.00 0.00 0.00 0.00 0.00 0.00 0.00 0.00 0.00 0.00 0.00 0.00 0.00 0.00 0.00 0.00
0.00 0.00 0.00 0.00 0.00 0.00 0.00 0.00 0.00 0.00 0.00 0.00 0.00 0.00 0.00 0.00 0.00 0.00 0.00 0.00 0.00 0.00 0.00 0.00 0.00 0.00 0.00 0.00 0.00 0.00 0.00 0.00 0.00 0.00 0.00 0.00 0.00 0.00 0.00 0.00 0.00 0.00 0.00 0.00
0.00 0.00 0.00 0.00 0.00 0.00 0.00 0.00 0.00 0.00 0.00 0.00 0.00 0.00 0.00 0.00 0.00 0.00 0.00 0.00 0.00 0.00 0.00 0.00 0.00 0.00 0.00 0.00 0.00 0.00 0.00 0.00 0.00 0.00 0.00 0.00 0.00 0.00 0.00 0.00 0.00 0.00 0.00 0.00
0.00 0.00 0.00 0.00 0.00 0.00 0.00 0.00 0.00 0.00 0.00 0.00 0.00 0.00 0.00 0.00 0.00 0.00 0.00 0.00 0.00 0.00 0.00 0.00 0.00 0.00 0.00 0.00 0.00 0.00 0.00 0.00 0.00 0.00 0.00 0.00 0.00 0.00 0.00 0.00 0.00 0.00 0.00 0.00
0.00 0.00 0.00 0.00 0.00 0.00 0.00 0.00 0.00 0.00 0.00 0.00 0.00 0.00 0.00 0.00 0.00 0.00 0.00 0.00 0.00 0.00 0.00 0.00 0.00 0.00 0.00 0.00 0.00 0.00 0.00 0.00 0.00 0.00 0.00 0.00 0.00 0.00 0.00 0.00 0.00 0.00 0.00 0.00
0.00 0.00 0.00 0.00 0.00 0.00 0.00 0.00 0.00 0.00 0.00 0.00 0.00 0.00 0.00 0.00 0.00 0.00 0.00 0.00 0.00 0.00 0.00 0.00 0.00 0.00 0.00 0.00 0.00 0.00 0.00 0.00 0.00 0.00 0.00 0.00 0.00 0.00 0.00 0.00 0.00 0.00 0.00 0.00
0.00 0.00 0.00 0.00 0.00 0.00 0.00 0.00 0.00 0.00 0.00 0.00 0.00 0.00 0.00 0.00 0.00 0.00 0.00 0.00 0.00 0.00 0.00 0.00 0.00 0.00 0.00 0.00 0.00 0.00 0.00 0.00 0.00 0.00 0.00 0.00 0.00 0.00 0.00 0.00 0.00 0.00 0.00 0.00
0.00 0.00 0.00 0.00 0.00 0.00 0.00 0.00 0.00 0.00 0.00 0.00 0.00 0.00 0.00 0.00 0.00 0.00 0.00 0.00 0.00 0.00 0.00 0.00 0.00 0.00 0.00 0.00 0.00 0.00 0.00 0.00 0.00 0.00 0.00 0.00 0.00 0.00 0.00 0.00 0.00 0.00 0.00 0.00
0.00 0.00 0.00 0.00 0.00 0.00 0.00 0.00 0.00 0.00 0.00 0.00 0.00 0.00 0.00 0.00 0.00 0.00 0.00 0.00 0.00 0.00 0.00 0.00 0.00 0.00 0.00 0.00 0.00 0.00 0.00 0.00 0.00 0.00 0.00 0.00 0.00 0.00 0.00 0.00 0.00 0.00 0.00 0.00
0.00 0.00 0.00 0.00 0.00 0.00 0.00 0.00 0.00 0.00 0.00 0.00 0.00 0.00 0.00 0.00 0.00 0.00 0.00 0.00 0.00 0.00 0.00 0.00 0.00 0.00 0.00 0.00 0.00 0.00 0.00 0.00 0.00 0.00 0.00 0.00 0.00 0.00 0.00 0.00 0.00 0.00 0.00 0.00
0.00 0.00 0.00 0.00 0.00 0.00 0.00 0.00 0.00 0.00 0.00 0.00 0.00 0.00 0.00 0.00 0.00 0.00 0.00 0.00 0.00 0.00 0.00 0.00 0.00 0.00 0.00 0.00 0.00 0.00 0.00 0.00 0.00 0.00 0.00 0.00 0.00 0.00 0.00 0.00 0.00 0.00 0.00 0.00
0.00 0.00 0.00 0.00 0.00 0.00 0.00 0.00 0.00 0.00 0.00 0.00 0.00 0.00 0.00 0.00 0.00 0.00 0.00 0.00 0.00 0.00 0.00 0.00 0.00 0.00 0.00 0.00 0.00 0.00 0.00 0.00 0.00 0.00 0.00 0.00 0.00 0.00 0.00 0.00 0.00 0.00 0.00 0.00
0.00 0.00 0.00 0.00 0.00 0.00 0.00 0.00 0.00 0.00 0.00 0.00 0.00 0.00 0.00 0.00 0.00 0.00 0.00 0.00 0.00 0.00 0.00 0.00 0.00 0.00 0.00 0.00 0.00 0.00 0.00 0.00 0.00 0.00 0.00 0.00 0.00 0.00 0.00 0.00 0.00 0.00 0.00 0.00
0.00 0.00 0.00 0.00 0.00 0.00 0.00 0.00 0.00 0.00 0.00 0.00 0.00 0.00 0.00 0.00 0.00 0.00 0.00 0.00 0.00 0.00 0.00 0.00 0.00 0.00 0.00 0.00 0.00 0.00 0.00 0.00 0.00 0.00 0.00 0.00 0.00 0.00 0.00 0.00 0.00 0.00 0.00 0.00
0.00 0.00 0.00 0.00 0.00 0.00 0.00 0.00 0.00 0.00 0.00 0.00 0.00 0.00 0.00 0.00 0.00 0.00 0.00 0.00 0.00 0.00 0.00 0.00 0.00 0.00 0.00 0.00 0.00 0.00 0.00 0.00 0.00 0.00 0.00 0.00 0.00 0.00 0.00 0.00 0.00 0.00 0.00 0.00
0.00 0.00 0.00 0.00 0.00 0.00 0.00 0.00 0.00 0.00 0.00 0.00 0.00 0.00 0.00 0.00 0.00 0.00 0.00 0.00 0.00 0.00 0.00 0.00 0.00 0.00 0.00 0.00 0.00 0.00 0.00 0.00 0.00 0.00 0.00 0.00 0.00 0.00 0.00 0.00 0.00 0.00 0.00 0.00
0.00 0.00 0.00 0.00 0.00 0.00 0.00 0.00 0.00 0.00 0.00 0.00 0.00 0.00 0.00 0.00 0.00 0.00 0.00 0.00 0.00 0.00 0.00 0.00 0.00 0.00 0.00 0.00 0.00 0.00 0.00 0.00 0.00 0.00 0.00 0.00 0.00 0.00 0.00 0.00 0.00 0.00 0.00 0.00
0.00 0.00 0.00 0.00 0.00 0.00 0.00 0.00 0.00 0.00 0.00 0.00 0.00 0.00 0.00 0.00 0.00 0.00 0.00 0.00 0.00 0.00 0.00 0.00 0.00 0.00 0.00 0.00 0.00 0.00 0.00 0.00 0.00 0.00 0.00 0.00 0.00 0.00 0.00 0.00 0.00 0.00 0.00 0.00
0.00 0.00 0.00 0.00 0.00 0.00 0.00 0.00 0.00 0.00 0.00 0.00 0.00 0.00 0.00 0.00 0.00 0.00 0.00 0.00 0.00 0.00 0.00 0.00 0.00 0.00 0.00 0.00 0.00 0.00 0.00 0.00 0.00 0.00 0.00 0.00 0.00 0.00 0.00 0.00 0.00 0.00 0.00 0.00
0.00 0.00 0.00 0.00 0.00 0.00 0.00 0.00 0.00 0.00 0.00 0.00 0.00 0.00 0.00 0.00 0.00 0.00 0.00 0.00 0.00 0.00 0.00 0.00 0.00 0.00 0.00 0.00 0.00 0.00 0.00 0.00 0.00 0.00 0.00 0.00 0.00 0.00 0.00 0.00 0.00 0.00 0.00 0.00
0.00 0.00 0.00 0.00 0.00 0.00 0.00 0.00 0.00 0.00 0.00 0.00 0.00 0.00 0.00 0.00 0.00 0.00 0.00 0.00 0.00 0.00 0.00 0.00 0.00 0.00 0.00 0.00 0.00 0.00 0.00 0.00 0.00 0.00 0.00 0.00 0.00 0.00 0.00 0.00 0.00 0.00 0.00 0.00
0.01 0.00 0.00 0.00 0.00 0.00 0.00 0.00 0.00 0.00 0.00 0.00 0.00 0.00 0.00 0.00 0.00 0.00 0.00 0.00 0.00 0.00 0.00 0.00 0.00 0.00 0.00 0.00 0.00 0.00 0.00 0.00 0.00 0.00 0.00 0.00 0.00 0.00 0.00 0.00 0.00 0.00 0.00 0.00
0.01 0.00 0.00 0.00 0.00 0.00 0.00 0.00 0.00 0.00 0.00 0.00 0.00 0.00 0.00 0.00 0.00 0.00 0.00 0.00 0.00 0.00 0.00 0.00 0.00 0.00 0.00 0.00 0.00 0.00 0.00 0.00 0.00 0.00 0.00 0.00 0.00 0.00 0.00 0.00 0.00 0.00 0.00 0.00
0.01 0.01 0.01 0.00 0.00 0.00 0.00 0.00 0.00 0.00 0.00 0.00 0.00 0.00 0.00 0.00 0.00 0.00 0.00 0.00 0.00 0.00 0.00 0.00 0.00 0.00 0.00 0.00 0.00 0.00 0.00 0.00 0.00 0.00 0.00 0.00 0.00 0.00 0.00 0.00 0.00 0.00 0.00 0.00
MSLP
1014.29 1014.61 1014.93 1015.24 1015.49 1015.65 1015.68 1015.54 1015.23 1014.77 1014.19 1013.54 1012.90 1012.32 1011.86 1011.56 1011.44 1011.47 1011.64 1011.89 1012.17 1012.44 1012.68 1012.86 1012.98 1013.07 1013.14 1013.22 1013.31 1013.42 1013.54 1013.65 1013.73 1013.76 1013.72 1013.61 1013.42 1013.17 1012.88 1012.57 1012.24 1011.90 1011.57 1011.24
1014.44 1014.71 1014.92 1015.04 1015.07 1014.99 1014.80 1014.49 1014.08 1013.59 1013.07 1012.54 1012.07 1011.68 1011.41 1011.26 1011.25 1011.34 1011.51 1011.73 1011.97 1012.19 1012.39 1012.56 1012.70 1012.83 1012.96 1013.10 1013.25 1013.40 1013.55 1013.66 1013.72 1013.72 1013.65 1013.51 1013.31 1013.06 1012.77 1012.48 1012.17 1011.87 1011.56 1011.24
1014.69 1014.87 1014.93 1014.87 1014.69 1014.38 1013.99 1013.54 1013.04 1012.54 1012.08 1011.67 1011.35 1011.13 1011.01 1011.00 1011.06 1011.19 1011.36 1011.54 1011.73 1011.90 1012.06 1012.22 1012.38 1012.54 1012.73 1012.92 1013.12 1013.30 1013.46 1013.57 1013.62 1013.60 1013.51 1013.36 1013.15 1012.91 1012.66 1012.39 1012.13 1011.87 1011.60 1011.31
1015.00 1015.05 1014.95 1014.69 1014.30 1013.81 1013.25 1012.67 1012.12 1011.62 1011.21 1010.91 1010.72 1010.63 1010.64 1010.72 1010.85 1010.99 1011.15 1011.30 1011.44 1011.57 1011.70 1011.84 1012.01 1012.21 1012.43 1012.66 1012.89 1013.10 1013.27 1013.38 1013.42 1013.38 1013.28 1013.13 1012.94 1012.74 1012.52 1012.31 1012.11 1011.90 1011.67 1011.42
1015.31 1015.18 1014.89 1014.43 1013.86 1013.21 1012.53 1011.87 1011.28 1010.80 1010.45 1010.23 1010.14 1010.16 1010.26 1010.41 1010.57 1010.73 1010.87 1010.99 1011.09 1011.19 1011.31 1011.45 1011.63 1011.84 1012.09 1012.34 1012.59 1012.81 1012.98 1013.08 1013.10 1013.06 1012.97 1012.83 1012.67 1012.51 1012.35 1012.20 1012.06 1011.90 1011.73 1011.51
1015.49 1015.16 1014.66 1014.04 1013.31 1012.54 1011.78 1011.09 1010.50 1010.05 1009.76 1009.62 1009.61 1009.70 1009.86 1010.05 1010.24 1010.40 1010.53 1010.63 1010.72 1010.81 1010.92 1011.06 1011.25 1011.47 1011.73 1011.99 1012.24 1012.45 1012.60 1012.69 1012.70 1012.66 1012.58 1012.46 1012.34 1012.23 1012.12 1012.03 1011.94 1011.84 1011.71 1011.53
1015.42 1014.88 1014.22 1013.44 1012.62 1011.78 1011.00 1010.31 1009.75 1009.36 1009.13 1009.06 1009.12 1009.26 1009.47 1009.68 1009.88 1010.05 1010.18 1010.28 1010.37 1010.46 1010.57 1010.72 1010.92 1011.15 1011.40 1011.65 1011.88 1012.06 1012.19 1012.25 1012.25 1012.20 1012.13 1012.03 1011.95 1011.87 1011.82 1011.77 1011.72 1011.65 1011.55 1011.41
1015.00 1014.30 1013.50 1012.64 1011.77 1010.94 1010.18 1009.55 1009.06 1008.75 1008.59 1008.58 1008.69 1008.88 1009.11 1009.34 1009.55 1009.73 1009.87 1009.98 1010.08 1010.19 1010.32 1010.48 1010.68 1010.90 1011.14 1011.36 1011.55 1011.69 1011.78 1011.81 1011.79 1011.73 1011.65 1011.57 1011.50 1011.45 1011.42 1011.39 1011.37 1011.32 1011.23 1011.10
1014.22 1013.40 1012.54 1011.66 1010.82 1010.04 1009.37 1008.83 1008.45 1008.23 1008.16 1008.21 1008.37 1008.59 1008.84 1009.08 1009.30 1009.49 1009.65 1009.79 1009.91 1010.05 1010.20 1010.37 1010.57 1010.78 1010.98 1011.16 1011.30 1011.39 1011.43 1011.41 1011.36 1011.27 1011.18 1011.10 1011.03 1010.98 1010.94 1010.92 1010.88 1010.82 1010.74 1010.61
1013.10 1012.25 1011.39 1010.56 1009.80 1009.14 1008.60 1008.20 1007.94 1007.83 1007.84 1007.96 1008.16 1008.41 1008.67 1008.93 1009.17 1009.38 1009.57 1009.74 1009.90 1010.06 1010.24 1010.42 1010.61 1010.79 1010.95 1011.08 1011.16 1011.19 1011.17 1011.10 1011.00 1010.88 1010.76 1010.65 1010.56 1010.49 1010.43 1010.37 1010.30 1010.21 1010.10 1009.97
1011.78 1010.95 1010.15 1009.43 1008.80 1008.28 1007.90 1007.65 1007.53 1007.53 1007.63 1007.82 1008.06 1008.34 1008.62 1008.90 1009.16 1009.41 1009.63 1009.84 1010.04 1010.24 1010.43 1010.62 1010.79 1010.94 1011.06 1011.13 1011.14 1011.10 1011.02 1010.90 1010.75 1010.59 1010.43 1010.28 1010.15 1010.04 1009.92 1009.81 1009.69 1009.56 1009.41 1009.26
1010.38 1009.62 1008.93 1008.33 1007.85 1007.50 1007.28 1007.18 1007.19 1007.30 1007.49 1007.74 1008.03 1008.34 1008.66 1008.97 1009.27 1009.55 1009.82 1010.08 1010.32 1010.55 1010.76 1010.95 1011.10 1011.22 1011.28 1011.29 1011.24 1011.14 1011.00 1010.82 1010.63 1010.43 1010.23 1010.04 1009.86 1009.69 1009.52 1009.35 1009.17 1008.98 1008.78 1008.60
1009.06 1008.39 1007.80 1007.34 1007.01 1006.80 1006.72 1006.76 1006.89 1007.10 1007.37 1007.68 1008.02 1008.38 1008.74 1009.10 1009.45 1009.78 1010.11 1010.42 1010.70 1010.96 1011.18 1011.37 1011.50 1011.58 1011.59 1011.55 1011.45 1011.29 1011.11 1010.89 1010.66 1010.43 1010.20 1009.98 1009.76 1009.53 1009.30 1009.07 1008.82 1008.58 1008.34 1008.12
1007.93 1007.33 1006.84 1006.48 1006.26 1006.18 1006.21 1006.35 1006.58 1006.87 1007.21 1007.59 1007.99 1008.41 1008.83 1009.25 1009.66 1010.06 1010.45 1010.81 1011.14 1011.42 1011.66 1011.83 1011.94 1011.98 1011.96 1011.87 1011.73 1011.54 1011.33 1011.09 1010.85 1010.61 1010.36 1010.12 1009.87 1009.61 1009.33 1009.05 1008.75 1008.46 1008.18 1007.92
1007.04 1006.49 1006.06 1005.78 1005.63 1005.62 1005.74 1005.95 1006.24 1006.60 1007.01 1007.45 1007.92 1008.40 1008.90 1009.39 1009.88 1010.35 1010.80 1011.22 1011.58 1011.89 1012.13 1012.30 1012.38 1012.40 1012.34 1012.22 1012.06 1011.86 1011.64 1011.41 1011.18 1010.95 1010.72 1010.48 1010.22 1009.95 1009.65 1009.34 1009.01 1008.68 1008.37 1008.09
1006.42 1005.89 1005.49 1005.24 1005.13 1005.16 1005.31 1005.56 1005.90 1006.31 1006.77 1007.28 1007.82 1008.38 1008.95 1009.53 1010.10 1010.65 1011.16 1011.62 1012.02 1012.34 1012.58 1012.74 1012.80 1012.79 1012.72 1012.58 1012.42 1012.23 1012.03 1011.84 1011.64 1011.45 1011.25 1011.03 1010.80 1010.54 1010.24 1009.92 1009.58 1009.24 1008.91 1008.61
1006.10 1005.56 1005.15 1004.90 1004.79 1004.82 1004.98 1005.25 1005.61 1006.06 1006.57 1007.13 1007.74 1008.38 1009.03 1009.69 1010.33 1010.94 1011.51 1012.01 1012.43 1012.76 1012.99 1013.13 1013.18 1013.15 1013.06 1012.93 1012.78 1012.62 1012.47 1012.32 1012.18 1012.05 1011.90 1011.74 1011.55 1011.32 1011.05 1010.74 1010.41 1010.07 1009.74 1009.44
1006.04 1005.48 1005.06 1004.78 1004.65 1004.66 1004.81 1005.08 1005.45 1005.91 1006.46 1007.07 1007.74 1008.44 1009.16 1009.88 1010.58 1011.25 1011.85 1012.37 1012.79 1013.11 1013.33 1013.45 1013.49 1013.45 1013.36 1013.25 1013.12 1013.01 1012.91 1012.83 1012.76 1012.69 1012.62 1012.52 1012.38 1012.20 1011.97 1011.70 1011.39 1011.07 1010.75 1010.45
1006.24 1005.68 1005.23 1004.93 1004.77 1004.76 1004.88 1005.13 1005.49 1005.96 1006.52 1007.16 1007.86 1008.61 1009.37 1010.13 1010.86 1011.55 1012.16 1012.68 1013.09 1013.40 1013.60 1013.70 1013.72 1013.68 1013.60 1013.51 1013.42 1013.35 1013.31 1013.30 1013.30 1013.31 1013.30 1013.27 1013.19 1013.06 1012.88 1012.65 1012.38 1012.08 1011.79 1011.50
1006.70 1006.13 1005.68 1005.36 1005.17 1005.12 1005.21 1005.43 1005.77 1006.22 1006.78 1007.42 1008.13 1008.89 1009.66 1010.43 1011.16 1011.84 1012.44 1012.94 1013.33 1013.60 1013.77 1013.86 1013.86 1013.82 1013.76 1013.70 1013.65 1013.63 1013.64 1013.69 1013.75 1013.82 1013.87 1013.90 1013.87 1013.79 1013.66 1013.47 1013.24 1012.98 1012.71 1012.44
1007.35 1006.81 1006.36 1006.03 1005.82 1005.74 1005.79 1005.97 1006.27 1006.69 1007.22 1007.83 1008.52 1009.25 1010.00 1010.74 1011.45 1012.09 1012.65 1013.11 1013.46 1013.71 1013.86 1013.92 1013.92 1013.89 1013.84 1013.80 1013.79 1013.81 1013.87 1013.96 1014.07 1014.18 1014.27 1014.34 1014.35 1014.31 1014.22 1014.07 1013.88 1013.66 1013.42 1013.18
1008.14 1007.63 1007.21 1006.88 1006.65 1006.54 1006.54 1006.67 1006.92 1007.29 1007.76 1008.32 1008.95 1009.63 1010.33 1011.02 1011.67 1012.26 1012.77 1013.19 1013.50 1013.71 1013.84 1013.89 1013.89 1013.86 1013.84 1013.82 1013.84 1013.89 1013.98 1014.09 1014.22 1014.35 1014.47 1014.55 1014.59 1014.58 1014.52 1014.41 1014.26 1014.07 1013.87 1013.66
1008.96 1008.50 1008.10 1007.78 1007.53 1007.39 1007.35 1007.43 1007.61 1007.91 1008.31 1008.80 1009.36 1009.97 1010.60 1011.22 1011.81 1012.34 1012.79 1013.16 1013.43 1013.62 1013.73 1013.78 1013.78 1013.77 1013.76 1013.77 1013.80 1013.87 1013.97 1014.09 1014.23 1014.36 1014.48 1014.57 1014.62 1014.62 1014.58 1014.50 1014.39 1014.24 1014.08 1013.90
1009.68 1009.27 1008.90 1008.58 1008.33 1008.15 1008.07 1008.10 1008.22 1008.45 1008.78 1009.19 1009.68 1010.21 1010.76 1011.31 1011.83 1012.30 1012.70 1013.03 1013.27 1013.44 1013.55 1013.60 1013.62 1013.62 1013.63 1013.66 1013.70 1013.78 1013.88 1014.00 1014.12 1014.25 1014.35 1014.43 1014.48 1014.49 1014.47 1014.42 1014.33 1014.23 1014.10 1013.95
1010.18 1009.81 1009.46 1009.15 1008.89 1008.70 1008.59 1008.57 1008.64 1008.82 1009.08 1009.43 1009.85 1010.31 1010.79 1011.28 1011.74 1012.16 1012.52 1012.82 1013.05 1013.21 1013.32 1013.39 1013.42 1013.45 1013.48 1013.52 1013.57 1013.65 1013.74 1013.85 1013.95 1014.06 1014.14 1014.21 1014.26 1014.27 1014.26 1014.23 1014.18 1014.10 1014.01 1013.89
1010.34 1010.01 1009.69 1009.39 1009.14 1008.94 1008.81 1008.77 1008.82 1008.95 1009.18 1009.48 1009.85 1010.27 1010.70 1011.14 1011.56 1011.95 1012.28 1012.57 1012.79 1012.95 1013.07 1013.16 1013.22 1013.27 1013.31 1013.37 1013.43 1013.51 1013.59 1013.68 1013.77 1013.86 1013.93 1013.98 1014.02 1014.04 1014.04 1014.03 1014.00 1013.94 1013.87 1013.77
1010.11 1009.82 1009.53 1009.26 1009.02 1008.84 1008.73 1008.69 1008.74 1008.87 1009.09 1009.38 1009.72 1010.11 1010.52 1010.93 1011.33 1011.69 1012.02 1012.29 1012.51 1012.69 1012.82 1012.93 1013.01 1013.08 1013.14 1013.22 1013.29 1013.37 1013.45 1013.54 1013.62 1013.69 1013.75 1013.80 1013.84 1013.86 1013.87 1013.86 1013.84 1013.80 1013.74 1013.63
Thickness
5722 5729 5731 5731 5732 5732 5723 5715 5707 5716 5722 5735 5743 5746 5747 5747 5746 5744 5743 5741 5738 5734 5731 5728 5725 5722 5718 5714 5710 5705 5698 5693 5688 5685 5681 5676 5672 5668 5665 5661 5659 5656 5653 5651
5718 5729 5730 5729 5734 5732 5730 5728 5724 5726 5729 5747 5750 5748 5747 5747 5745 5743 5742 5742 5740 5737 5733 5728 5725 5721 5717 5713 5709 5704 5698 5693 5690 5685 5681 5677 5673 5670 5666 5663 5660 5657 5655 5652
5699 5714 5720 5713 5731 5733 5733 5738 5733 5725 5735 5746 5744 5745 5746 5747 5746 5744 5743 5743 5740 5736 5733 5730 5726 5722 5717 5713 5709 5703 5698 5694 5690 5686 5681 5678 5675 5671 5667 5663 5661 5658 5656 5654
5692 5703 5694 5718 5744 5745 5740 5743 5746 5746 5747 5747 5748 5750 5752 5751 5747 5745 5744 5742 5739 5736 5733 5730 5727 5723 5718 5713 5708 5702 5698 5694 5690 5686 5682 5678 5675 5671 5668 5664 5661 5659 5657 5655
5684 5686 5695 5722 5743 5746 5738 5737 5749 5746 5748 5748 5748 5744 5742 5750 5750 5747 5745 5741 5738 5736 5732 5729 5725 5721 5716 5710 5706 5701 5697 5693 5690 5686 5682 5678 5675 5672 5669 5666 5662 5660 5658 5656
5681 5684 5685 5716 5745 5754 5744 5728 5748 5749 5746 5743 5740 5724 5729 5746 5747 5745 5742 5739 5736 5733 5730 5725 5722 5718 5712 5707 5702 5699 5696 5693 5690 5686 5682 5679 5676 5673 5670 5667 5664 5662 5659 5657
5679 5679 5693 5728 5746 5746 5716 5721 5749 5749 5747 5743 5738 5737 5741 5744 5742 5741 5738 5736 5733 5729 5724 5721 5718 5714 5708 5703 5700 5698 5696 5693 5689 5686 5682 5679 5676 5673 5670 5667 5664 5662 5659 5657
5674 5675 5692 5738 5740 5730 5731 5745 5748 5747 5747 5745 5742 5742 5741 5739 5736 5734 5732 5730 5727 5722 5718 5716 5714 5710 5704 5699 5699 5697 5694 5690 5687 5684 5682 5680 5675 5672 5670 5666 5663 5661 5659 5657
5694 5704 5728 5739 5742 5747 5746 5744 5746 5745 5746 5744 5740 5737 5735 5733 5730 5729 5727 5724 5721 5717 5713 5710 5708 5705 5700 5697 5696 5693 5690 5686 5684 5681 5679 5676 5673 5670 5668 5665 5661 5659 5657 5655
5702 5714 5728 5736 5742 5745 5746 5746 5747 5746 5744 5742 5737 5734 5731 5728 5724 5722 5721 5718 5715 5711 5706 5703 5701 5699 5696 5695 5692 5689 5685 5682 5679 5677 5674 5673 5670 5668 5665 5662 5660 5658 5656 5654
5700 5714 5722 5729 5735 5739 5741 5743 5743 5743 5742 5739 5735 5730 5727 5723 5720 5717 5715 5712 5709 5705 5700 5696 5695 5692 5691 5689 5687 5683 5680 5677 5674 5672 5670 5668 5667 5665 5663 5661 5659 5656 5654 5653
5697 5713 5712 5721 5733 5736 5735 5736 5737 5736 5733 5734 5732 5727 5723 5718 5715 5712 5708 5705 5701 5697 5693 5690 5688 5686 5684 5683 5680 5677 5673 5671 5668 5666 5665 5663 5661 5660 5660 5658 5658 5656 5654 5651
5714 5723 5722 5727 5731 5734 5733 5733 5733 5731 5729 5726 5725 5723 5718 5712 5709 5705 5702 5698 5694 5690 5686 5683 5680 5678 5677 5675 5673 5670 5666 5664 5662 5660 5659 5657 5655 5653 5652 5653 5653 5651 5650 5648
5717 5718 5716 5721 5724 5729 5729 5729 5727 5725 5723 5721 5717 5714 5711 5706 5701 5698 5694 5691 5687 5683 5679 5675 5672 5669 5669 5668 5665 5662 5660 5658 5656 5653 5651 5649 5648 5646 5644 5643 5642 5642 5643 5643
5713 5714 5715 5719 5720 5720 5720 5718 5715 5712 5711 5709 5708 5705 5702 5697 5692 5689 5685 5682 5678 5674 5670 5667 5664 5660 5660 5659 5656 5654 5652 5649 5647 5645 5643 5641 5639 5638 5636 5635 5634 5633 5633 5634
5705 5707 5707 5708 5710 5710 5709 5708 5706 5704 5702 5701 5697 5695 5692 5688 5683 5679 5675 5672 5668 5662 5659 5657 5654 5652 5651 5649 5647 5644 5642 5643 5639 5636 5633 5632 5630 5628 5626 5625 5624 5623 5623 5622
5690 5692 5694 5696 5699 5701 5702 5702 5701 5698 5695 5692 5689 5685 5681 5676 5671 5666 5663 5660 5656 5652 5649 5647 5644 5643 5641 5639 5637 5634 5632 5630 5630 5625 5622 5620 5618 5616 5615 5614 5612 5611 5611 5611
5690 5694 5695 5697 5697 5695 5694 5693 5692 5690 5686 5684 5680 5675 5670 5666 5660 5655 5651 5647 5644 5640 5637 5636 5635 5633 5631 5629 5626 5624 5621 5618 5616 5613 5610 5608 5606 5604 5603 5601 5600 5599 5599 5599
5683 5686 5688 5689 5690 5688 5686 5684 5682 5680 5677 5674 5669 5663 5659 5654 5649 5644 5640 5636 5632 5628 5626 5626 5625 5622 5620 5618 5616 5613 5610 5607 5604 5601 5598 5597 5594 5592 5591 5589 5588 5587 5586 5585
5672 5675 5677 5677 5678 5676 5674 5673 5671 5668 5665 5662 5657 5650 5645 5640 5637 5632 5628 5623 5619 5617 5616 5614 5612 5610 5608 5606 5605 5601 5598 5595 5591 5588 5586 5584 5581 5579 5578 5577 5575 5574 5573 5571
5654 5658 5660 5661 5661 5661 5661 5659 5657 5654 5651 5649 5644 5639 5633 5627 5624 5620 5615 5609 5607 5606 5605 5604 5600 5598 5596 5594 5592 5588 5585 5582 5579 5576 5573 5571 5569 5567 5565 5563 5562 5560 5558 5556
5634 5638 5640 5642 5642 5641 5642 5642 5641 5639 5635 5632 5628 5624 5619 5613 5609 5605 5602 5599 5596 5595 5593 5590 5588 5587 5585 5583 5579 5576 5573 5570 5567 5563 5561 5558 5556 5554 5552 5550 5548 5546 5544 5541
5614 5618 5620 5622 5623 5622 5623 5623 5623 5621 5619 5616 5613 5609 5605 5600 5596 5593 5587 5585 5584 5584 5581 5578 5577 5576 5574 5570 5566 5563 5560 5557 5554 5551 5549 5546 5544 5541 5539 5536 5534 5532 5529 5527
5596 5599 5602 5603 5604 5603 5602 5602 5603 5602 5601 5599 5597 5594 5591 5585 5580 5579 5578 5577 5574 5572 5568 5566 5566 5564 5562 5556 5553 5550 5547 5545 5542 5539 5537 5534 5531 5528 5526 5523 5520 5518 5516 5514
5579 5581 5584 5585 5585 5585 5584 5584 5584 5583 5582 5580 5578 5577 5576 5574 5570 5566 5564 5563 5562 5559 5555 5554 5554 5551 5547 5544 5540 5538 5535 5532 5530 5527 5525 5522 5519 5516 5513 5510 5508 5505 5502 5499
5562 5564 5567 5569 5570 5569 5569 5569 5567 5566 5565 5562 5561 5560 5559 5558 5557 5554 5551 5550 5548 5546 5542 5539 5538 5536 5533 5531 5528 5526 5523 5521 5518 5515 5513 5510 5507 5504 5501 5498 5495 5491 5488 5485
5546 5548 5550 5551 5553 5554 5554 5554 5553 5551 5550 5549 5546 5545 5544 5543 5542 5540 5538 5536 5533 5531 5529 5527 5525 5523 5521 5518 5516 5514 5511 5509 5506 5503 5501 5498 5495 5491 5488 5485 5481 5477 5474 5470